When you browse on this site, cookies collect data to enhance your experience and personalize the content and advertising you see.
Visit our Privacy Policy to learn more. By continuing to use the site, you agree to this use of cookies and data.
  • In United Kingdom
  • List of Countries
  • For 7 days
  • Water Temperature
  • Weather Map
  • Weather Widgets
  • user-avatar
    Login

    Hourly Weather Kildare

    Today, 11 December, Wednesday

    Time Temperature Precipitation Wind Pressure Humidity
    00:00 +2°C° 0 mm 7 mps 744 mmHg 83%
    01:00 +2°C° 0 mm 7 mps 743 mmHg 83%
    02:00 +2°C° 0 mm 6 mps 743 mmHg 83%
    03:00 +2°C° 0 mm 6 mps 742 mmHg 84%
    04:00 +1°C° 0 mm 6 mps 742 mmHg 84%
    05:00 +1°C° 0 mm 6 mps 742 mmHg 84%
    06:00 +1°C° 0 mm 5 mps 741 mmHg 85%
    07:00 +1°C° 0 mm 5 mps 741 mmHg 86%
    08:00 +1°C° 0 mm 5 mps 741 mmHg 88%
    09:00 +1°C° 0 mm 5 mps 740 mmHg 89%
    10:00 +2°C° 0 mm 5 mps 740 mmHg 84%
    11:00 +2°C° 0 mm 6 mps 741 mmHg 79%
    12:00 +3°C° 0 mm 6 mps 741 mmHg 74%
    13:00 +3°C° 0 mm 6 mps 741 mmHg 75%
    14:00 +3°C° 0 mm 6 mps 741 mmHg 75%
    15:00 +3°C° 0 mm 5 mps 741 mmHg 76%
    16:00 +2°C° 0 mm 5 mps 742 mmHg 78%
    17:00 +1°C° 0 mm 5 mps 742 mmHg 80%
    18:00 +1°C° 0 mm 5 mps 742 mmHg 82%
    19:00 0°C° 0 mm 5 mps 742 mmHg 82%
    20:00 0°C° 0 mm 5 mps 743 mmHg 83%
    21:00 0°C° 0 mm 5 mps 743 mmHg 84%
    22:00 0°C° 0 mm 5 mps 742 mmHg 84%
    23:00 0°C° 0 mm 5 mps 741 mmHg 83%

    Tomorrow, 12 December, Thursday

    Time Temperature Precipitation Wind Pressure Humidity
    00:00 0°C° 0 mm 5 mps 741 mmHg 83%
    01:00 0°C° 0 mm 5 mps 740 mmHg 83%
    02:00 +1°C° 0 mm 5 mps 738 mmHg 83%
    03:00 +1°C° 0 mm 5 mps 737 mmHg 83%
    04:00 +2°C° 1.1 mm 5 mps 735 mmHg 87%
    05:00 +3°C° 1.1 mm 5 mps 734 mmHg 90%
    06:00 +4°C° 1.1 mm 6 mps 732 mmHg 94%
    07:00 +5°C° 0.4 mm 5 mps 731 mmHg 94%
    08:00 +5°C° 0.4 mm 5 mps 730 mmHg 95%
    09:00 +6°C° 0.4 mm 4 mps 729 mmHg 95%
    10:00 +6°C° 0 mm 5 mps 729 mmHg 92%
    11:00 +6°C° 0 mm 5 mps 728 mmHg 89%
    12:00 +7°C° 0 mm 5 mps 728 mmHg 87%
    13:00 +5°C° 0.5 mm 6 mps 727 mmHg 88%
    14:00 +5°C° 0.5 mm 6 mps 726 mmHg 89%
    15:00 +5°C° 0.5 mm 6 mps 725 mmHg 90%
    16:00 +4°C° 0.1 mm 6 mps 725 mmHg 88%
    17:00 +4°C° 0.1 mm 7 mps 724 mmHg 86%
    18:00 +3°C° 0.1 mm 7 mps 723 mmHg 84%
    19:00 +3°C° 0.1 mm 7 mps 723 mmHg 85%
    20:00 +2°C° 0.1 mm 8 mps 723 mmHg 86%
    21:00 +2°C° 0.1 mm 9 mps 723 mmHg 87%
    22:00 +2°C° 0.4 mm 9 mps 723 mmHg 86%
    23:00 +2°C° 0.4 mm 9 mps 723 mmHg 85%

    Day after tomorrow, 13 December, Friday

    Time Temperature Precipitation Wind Pressure Humidity
    00:00 +2°C° 0.4 mm 10 mps 723 mmHg 84%
    01:00 +2°C° 0 mm 10 mps 723 mmHg 85%
    02:00 +1°C° 0 mm 9 mps 723 mmHg 86%
    03:00 +1°C° 0 mm 9 mps 723 mmHg 86%
    04:00 +2°C° 0.1 mm 8 mps 724 mmHg 87%
    05:00 +2°C° 0.1 mm 8 mps 724 mmHg 88%
    06:00 +4°C° 0.1 mm 7 mps 724 mmHg 89%
    07:00 +4°C° 0 mm 7 mps 726 mmHg 88%
    08:00 +4°C° 0 mm 7 mps 728 mmHg 87%
    09:00 +3°C° 0 mm 7 mps 729 mmHg 86%
    10:00 +4°C° 0 mm 7 mps 730 mmHg 85%
    11:00 +4°C° 0 mm 7 mps 731 mmHg 84%
    12:00 +4°C° 0 mm 7 mps 732 mmHg 83%
    13:00 +4°C° 0 mm 7 mps 732 mmHg 82%
    14:00 +3°C° 0 mm 6 mps 732 mmHg 80%
    15:00 +3°C° 0 mm 6 mps 732 mmHg 79%
    16:00 +3°C° 0.1 mm 5 mps 731 mmHg 82%
    17:00 +2°C° 0.1 mm 5 mps 730 mmHg 84%
    18:00 +2°C° 0.1 mm 5 mps 729 mmHg 87%
    19:00 +2°C° 0.8 mm 5 mps 727 mmHg 89%
    20:00 +3°C° 0.8 mm 5 mps 726 mmHg 91%
    21:00 +3°C° 0.8 mm 5 mps 724 mmHg 93%
    22:00 +2°C° 0.1 mm 9 mps 724 mmHg 87%
    23:00 +1°C° 0.1 mm 13 mps 724 mmHg 82%

    14 December, Saturday

    Time Temperature Precipitation Wind Pressure Humidity
    00:00 +1°C° 0.1 mm 17 mps 724 mmHg 76%
    01:00 0°C° 0 mm 15 mps 725 mmHg 74%
    02:00 0°C° 0 mm 13 mps 726 mmHg 72%
    03:00 -1°C° 0 mm 11 mps 728 mmHg 71%
    04:00 0°C° 0 mm 10 mps 729 mmHg 72%
    05:00 -1°C° 0 mm 9 mps 729 mmHg 73%
    06:00 -1°C° 0 mm 8 mps 730 mmHg 74%
    07:00 -1°C° 0 mm 8 mps 731 mmHg 74%
    08:00 -1°C° 0 mm 8 mps 731 mmHg 73%
    09:00 -2°C° 0 mm 7 mps 731 mmHg 73%
    10:00 -1°C° 0.1 mm 8 mps 732 mmHg 70%
    11:00 -1°C° 0.1 mm 9 mps 732 mmHg 67%
    12:00 -2°C° 0.1 mm 10 mps 732 mmHg 64%
    13:00 -1°C° 0.1 mm 9 mps 733 mmHg 63%
    14:00 -1°C° 0.1 mm 8 mps 733 mmHg 62%
    15:00 -1°C° 0.1 mm 7 mps 733 mmHg 62%
    16:00 -1°C° 0 mm 7 mps 733 mmHg 64%
    17:00 -2°C° 0 mm 7 mps 733 mmHg 66%
    18:00 -3°C° 0 mm 6 mps 734 mmHg 69%
    19:00 -2°C° 0 mm 5 mps 733 mmHg 70%
    20:00 -2°C° 0 mm 5 mps 733 mmHg 71%
    21:00 -3°C° 0 mm 4 mps 733 mmHg 72%
    22:00 -1°C° 0 mm 3 mps 732 mmHg 69%
    23:00 -1°C° 0 mm 2 mps 731 mmHg 66%

    15 December, Sunday

    Time Temperature Precipitation Wind Pressure Humidity
    00:00 +2°C° 0 mm 1 mps 730 mmHg 64%
    01:00 -1°C° 0 mm 2 mps 730 mmHg 68%
    02:00 -1°C° 0 mm 3 mps 731 mmHg 72%
    03:00 -1°C° 0 mm 3 mps 731 mmHg 76%
    04:00 -2°C° 0 mm 4 mps 732 mmHg 77%
    05:00 -2°C° 0 mm 5 mps 733 mmHg 78%
    06:00 -2°C° 0 mm 6 mps 734 mmHg 79%
    07:00 -2°C° 0 mm 6 mps 734 mmHg 78%
    08:00 -2°C° 0 mm 6 mps 735 mmHg 78%
    09:00 -2°C° 0 mm 6 mps 735 mmHg 77%
    10:00 -1°C° 0 mm 6 mps 735 mmHg 73%
    11:00 +1°C° 0 mm 6 mps 736 mmHg 69%
    12:00 +1°C° 0 mm 5 mps 736 mmHg 65%
    13:00 +1°C° 0.3 mm 5 mps 736 mmHg 71%
    14:00 +1°C° 0.3 mm 5 mps 736 mmHg 77%
    15:00 0°C° 0.3 mm 5 mps 735 mmHg 83%
    16:00 0°C° 0 mm 5 mps 735 mmHg 83%
    17:00 -1°C° 0 mm 5 mps 735 mmHg 83%
    18:00 -1°C° 0 mm 5 mps 735 mmHg 83%
    19:00 -1°C° 0.1 mm 5 mps 735 mmHg 82%
    20:00 0°C° 0.1 mm 5 mps 735 mmHg 82%
    21:00 -1°C° 0.1 mm 6 mps 735 mmHg 81%
    22:00 -1°C° 0 mm 6 mps 735 mmHg 81%
    23:00 +1°C° 0 mm 6 mps 735 mmHg 80%

    16 December, Monday

    Time Temperature Precipitation Wind Pressure Humidity
    00:00 +1°C° 0 mm 6 mps 734 mmHg 80%
    01:00 +1°C° 0 mm 6 mps 734 mmHg 80%
    02:00 +1°C° 0 mm 6 mps 734 mmHg 80%
    03:00 +1°C° 0 mm 6 mps 734 mmHg 80%
    04:00 +1°C° 0 mm 6 mps 734 mmHg 83%
    05:00 -1°C° 0 mm 6 mps 734 mmHg 85%
    06:00 -1°C° 0 mm 6 mps 734 mmHg 88%
    07:00 -1°C° 0 mm 5 mps 735 mmHg 89%
    08:00 -1°C° 0 mm 4 mps 735 mmHg 90%
    09:00 -2°C° 0 mm 4 mps 736 mmHg 92%
    10:00 0°C° 0 mm 3 mps 737 mmHg 89%
    11:00 +1°C° 0 mm 3 mps 737 mmHg 86%
    12:00 +2°C° 0 mm 3 mps 738 mmHg 83%
    13:00 +1°C° 0 mm 3 mps 738 mmHg 84%
    14:00 +1°C° 0 mm 3 mps 738 mmHg 84%
    15:00 +2°C° 0 mm 2 mps 739 mmHg 85%
    16:00 +1°C° 0 mm 3 mps 739 mmHg 87%
    17:00 0°C° 0 mm 3 mps 739 mmHg 89%
    18:00 -1°C° 0 mm 3 mps 740 mmHg 91%
    19:00 -1°C° 0 mm 3 mps 740 mmHg 91%
    20:00 -1°C° 0 mm 3 mps 741 mmHg 91%
    21:00 -1°C° 0 mm 3 mps 741 mmHg 91%
    22:00 -1°C° 0 mm 3 mps 741 mmHg 91%
    23:00 -2°C° 0 mm 2 mps 741 mmHg 91%
    Show more